Tracking 27086 objects as of 22-Mar-2023
HD Live streaming from Space Station
objects crossing your sky now

STARLINK-2388

Track STARLINK-2388 now!
10-day predictions
STARLINK-2388 is classified as:


NORAD ID: 47807
Int'l Code: 2021-018W
Perigee: 553.3 km
Apogee: 555.6 km
Inclination: 53.1 °
Period: 95.6 minutes
Semi major axis: 6925 km
RCS: Unknown
Launch date: March 11, 2021
Source: United States (US)
Launch site: AIR FORCE EASTERN TEST RANGE (AFETR)
Your satellite tracking list
Your tracking list is empty




NASA's NSSDC Master Catalog

Two Line Element Set (TLE):
1 47807U 21018W   23081.16275016  .00021946  00000-0  14886-2 0  9991
2 47807  53.0542  45.7545 0001673 110.4080 249.7089 15.06376204113354
Source of the keplerian elements: AFSPC